Home   Weather   Landsberg am Lech   Past weeks

Flag for Germany Past Weather in Landsberg am Lech, Bavaria, Germany — Yesterday and Last 2 Weeks

Now
28 °F

Ice fog.


Feels Like: 25 °F
Forecast: 25 / 42 °F
Wind: 3 mph from East

Location: Landsberg

Current Time: Dec 4, 2016 at 11:24:21 am

Latest Report: Dec 4, 2016 at 10:20 am


Visibility: 2 mi

Pressure: 30.27 "Hg (28.09 "Hg at 593m altitude)

Humidity: 100%

Dew Point: 28 °F

Location of Landsberg am LechLocation

Past Weather in Landsberg am Lech — Graph

°F

Landsberg am Lech Temperature Yesterday

Maximum temperature yesterday: 36 °F (at 12:20 am)
Minimum temperature yesterday: 27 °F (at 5:20 pm)
Average temperature yesterday: 31 °F

High & Low Weather Summary for the Past Weeks

 TemperatureHumidityPressure
High64 °F (Nov 21, 1:20 pm)100% (Nov 22, 7:20 pm)30.48 "Hg (Nov 22, 7:20 pm)
Low19 °F (Nov 30, 12:20 am)39% (Nov 22, 12:20 am)29.65 "Hg (Nov 21, 12:20 pm)
Average38 °F84%30.07 "Hg
* Reported Nov 19 9:20 am — Dec 4 9:20 am, Landsberg am Lech, Weather by CustomWeather, © 2016

Note: Actual official high and low records may vary slightly from our data, if they occured in-between our weather recording intervals... More about our weather records

Advertising

Landsberg am Lech Weather History for the Previous 24 Hours

Scroll right to see more
 ConditionsComfort  
Time TempWeatherWind HumidityBarometerVisibility
9:20 am
Sun, Dec 4
28 °FIce fog.3 mph100%30.27 "Hg2 mi
8:20 am28 °FIce fog.5 mph100%30.24 "Hg2 mi
7:20 am28 °FIce fog.3 mph93%30.24 "Hg2 mi
6:20 am28 °FIce fog.6 mph93%30.21 "Hg2 mi
5:20 am27 °FIce fog.6 mph100%30.21 "Hg2 mi
5:04 am27 °FIce fog.6 mph100%30.21 "Hg2 mi
4:20 am27 °FIce fog.6 mph100%30.21 "Hg3 mi
3:20 am28 °FLow clouds.3 mph93%30.21 "Hg4 mi
2:20 am28 °FIce fog.6 mph93%30.21 "Hg3 mi
1:20 am28 °FIce fog.7 mph93%30.21 "Hg3 mi
12:20 am28 °FLow clouds.5 mph93%30.21 "Hg4 mi
11:20 pm
Sat, Dec 3
28 °FLow clouds.6 mph93%30.18 "Hg4 mi
10:20 pm27 °FLow clouds.10 mph100%30.18 "Hg4 mi
9:20 pm28 °FLow clouds.9 mph93%30.18 "Hg4 mi
8:20 pm28 °FPassing clouds.8 mph93%30.18 "Hg4 mi
7:20 pm28 °FPassing clouds.7 mph86%30.18 "Hg4 mi
6:20 pm28 °FPassing clouds.8 mph86%30.15 "Hg4 mi
5:20 pm27 °FPassing clouds.9 mph93%30.15 "Hg4 mi
4:20 pm28 °FPartly sunny.13 mph93%30.15 "Hg4 mi
3:20 pm28 °FIce fog.13 mph93%30.12 "Hg3 mi
2:20 pm32 °FPassing clouds.15 mph87%30.12 "Hg6 mi
1:20 pm34 °FPassing clouds.13 mph81%30.12 "HgN/A
12:20 pm36 °FPassing clouds.12 mph75%30.12 "HgN/A
11:20 am34 °FPassing clouds.12 mph75%30.15 "HgN/A
Weather by CustomWeather, © 2016

See weather overviewHow to use our weather pages